EW0609 Weather Reports


Display with metric or nautical units.
time (UTC)temp
F
wind
direction
speed
MPH
gust
MPH
rain 1hr
in
rain 24hr
in
rain mn
in
humidity
%
barometer
mb
20260509130838 60 100 1.0 2.0 0.00 0.00 0.00 57 1013.5
20260509130722 59 124 0.0 2.0 0.00 0.00 0.00 57 1013.5
20260509125838 58 159 0.0 2.0 0.00 0.00 0.00 57 1013.5
20260509125337 58 159 0.0 3.0 0.00 0.00 0.00 58 1013.4
20260509124838 57 182 1.0 3.0 0.00 0.00 0.00 59 1013.3
20260509124338 56 116 0.0 3.0 0.00 0.00 0.00 61 1013.4
20260509124222 55 168 0.0 2.0 0.00 0.00 0.00 61 1013.3
20260509123729 55 162 0.0 3.0 0.00 0.00 0.00 62 1013.3
20260509122837 54 180 0.0 3.0 0.00 0.00 0.00 62 1013.3
20260509122337 54 142 0.0 3.0 0.00 0.00 0.00 63 1013.3
20260509121838 53 190 1.0 3.0 0.00 0.00 0.00 63 1013.3
20260509121736 54 166 0.0 3.0 0.00 0.00 0.00 62 1013.2
20260509120838 53 148 1.0 3.0 0.00 0.00 0.00 63 1013.2
20260509120337 53 155 0.0 3.0 0.00 0.00 0.00 63 1013.3
20260509115839 53 186 0.0 0.0 0.00 0.00 0.00 63 1013.3
20260509115338 53 186 0.0 2.0 0.00 0.00 0.00 63 1013.2
20260509114840 53 183 0.0 2.0 0.00 0.00 0.00 62 1013.2
20260509114338 53 171 0.0 1.0 0.00 0.00 0.00 62 1013.0
20260509113838 53 175 0.0 2.0 0.00 0.00 0.00 61 1013.2
20260509113337 53 166 1.0 3.0 0.00 0.00 0.00 61 1013.2
20260509113225 54 161 0.0 3.0 0.00 0.00 0.00 60 1013.2
20260509112338 54 166 0.0 2.0 0.00 0.00 0.00 60 1013.2
20260509111837 54 173 0.0 2.0 0.00 0.00 0.00 59 1013.0
20260509111338 55 161 0.0 5.0 0.00 0.00 0.00 58 1013.2
20260509110838 55 133 2.0 5.0 0.00 0.00 0.00 58 1013.2
20260509110338 55 106 2.0 5.0 0.00 0.00 0.00 58 1013.4
20260509105838 55 103 2.0 6.0 0.00 0.00 0.00 58 1013.4
20260509105337 55 118 3.0 6.0 0.00 0.00 0.00 57 1013.5
20260509104836 55 149 2.0 4.0 0.00 0.00 0.00 57 1013.5
20260509104338 56 145 2.0 6.0 0.00 0.00 0.00 56 1013.4
20260509103838 56 145 2.0 7.0 0.00 0.00 0.00 56 1013.4
20260509103337 56 110 3.0 7.0 0.00 0.00 0.00 56 1013.4
20260509102837 56 117 4.0 9.0 0.00 0.00 0.00 56 1013.4
20260509102340 56 131 2.0 9.0 0.00 0.00 0.00 55 1013.5
20260509101837 56 124 4.0 9.0 0.00 0.00 0.00 55 1013.5
20260509101337 56 155 4.0 9.0 0.00 0.00 0.00 54 1013.5
20260509101227 56 99 2.0 6.0 0.00 0.00 0.00 54 1013.4
20260509100338 56 147 2.0 6.0 0.00 0.00 0.00 54 1013.6
20260509095837 56 173 3.0 6.0 0.00 0.00 0.00 54 1013.5
20260509095338 56 118 2.0 7.0 0.00 0.00 0.00 54 1013.6
20260509094841 56 134 3.0 7.0 0.00 0.00 0.00 54 1013.6
20260509094338 56 120 3.0 7.0 0.00 0.00 0.00 54 1013.5
20260509094227 56 124 3.0 7.0 0.00 0.00 0.00 53 1013.6
20260509093339 56 144 4.0 9.0 0.00 0.00 0.00 52 1013.4
20260509092839 57 123 3.0 9.0 0.00 0.00 0.00 52 1013.4
20260509092339 57 104 5.0 9.0 0.00 0.00 0.00 52 1013.4
20260509091838 57 124 4.0 10.0 0.00 0.00 0.00 51 1013.3
20260509091339 57 104 6.0 10.0 0.00 0.00 0.00 51 1013.2
20260509090837 57 111 6.0 10.0 0.00 0.00 0.00 51 1013.2
20260509090337 57 134 5.0 7.0 0.00 0.00 0.00 51 1013.2
20260509085838 57 134 4.0 7.0 0.00 0.00 0.00 51 1013.3
20260509085337 57 117 4.0 7.0 0.00 0.00 0.00 51 1013.3
20260509085228 57 133 4.0 10.0 0.00 0.00 0.00 50 1013.4
20260509084337 58 117 5.0 10.0 0.00 0.00 0.00 50 1013.5
20260509083837 58 96 4.0 11.0 0.00 0.00 0.00 50 1013.4
20260509083337 58 103 6.0 11.0 0.00 0.00 0.00 50 1013.4
20260509082837 58 134 6.0 10.0 0.00 0.00 0.00 50 1013.3
20260509082721 58 114 6.0 10.0 0.00 0.00 0.00 50 1013.3
20260509082222 58 104 6.0 10.0 0.00 0.00 0.00 50 1013.3
20260509081337 58 103 5.0 12.0 0.00 0.00 0.00 50 1013.3
20260509081219 58 120 6.0 12.0 0.00 0.00 0.00 50 1013.3
20260509080337 58 114 5.0 12.0 0.00 0.00 0.00 49 1013.3
20260509075837 58 111 4.0 12.0 0.00 0.00 0.00 49 1013.3
20260509075337 59 120 4.0 12.0 0.00 0.00 0.00 49 1013.4
20260509075229 59 117 8.0 12.0 0.00 0.00 0.00 48 1013.3
20260509074337 59 133 6.0 13.0 0.00 0.00 0.00 47 1013.5
20260509073837 60 111 6.0 13.0 0.00 0.00 0.00 46 1013.4
20260509073337 62 121 8.0 15.0 0.00 0.00 0.00 44 1013.4
20260509072838 63 124 6.0 15.0 0.00 0.00 0.00 43 1013.3
20260509072337 63 100 6.0 14.0 0.00 0.00 0.00 43 1013.2
20260509071838 63 79 6.0 14.0 0.00 0.00 0.00 43 1013.2
20260509071724 63 125 6.0 12.0 0.00 0.00 0.00 43 1013.0
20260509070837 63 56 5.0 13.0 0.00 0.00 0.00 43 1013.2
20260509070337 63 85 5.0 13.0 0.00 0.00 0.00 43 1012.9
20260509070222 62 104 4.0 10.0 0.00 0.00 0.00 43 1013.0
20260509065336 62 79 4.0 9.0 0.00 0.00 0.00 43 1013.0
20260509064839 62 76 4.0 9.0 0.00 0.00 0.00 43 1013.2
20260509064716 63 90 3.0 9.0 0.00 0.00 0.00 42 1013.0
20260509063839 64 65 4.0 9.0 0.00 0.00 0.00 42 1012.8
20260509063337 64 87 2.0 9.0 0.00 0.00 0.00 41 1012.8
20260509062837 64 102 3.0 12.0 0.00 0.00 0.00 41 1012.9
20260509062337 65 87 2.0 14.0 0.00 0.00 0.00 41 1012.8
20260509062225 65 114 5.0 14.0 0.00 0.00 0.00 41 1013.2
20260509061336 65 92 6.0 13.0 0.00 0.00 0.00 41 1013.0
20260509060836 64 86 3.0 7.0 0.00 0.00 0.00 41 1013.2
20260509060338 65 54 3.0 9.0 0.00 0.00 0.00 41 1013.0
20260509055838 65 94 4.0 9.0 0.00 0.00 0.00 40 1013.3
20260509055337 65 90 4.0 10.0 0.00 0.00 0.00 40 1013.2
20260509054837 65 106 5.0 10.0 0.00 0.00 0.00 39 1013.0
20260509054337 66 110 5.0 9.0 0.00 0.00 0.00 39 1013.2
20260509053837 66 109 4.0 9.0 0.00 0.00 0.00 39 1013.2
20260509053337 66 103 4.0 9.0 0.00 0.00 0.00 39 1013.0
20260509052837 66 99 6.0 9.0 0.00 0.00 0.00 39 1013.2
20260509052337 66 109 3.0 12.0 0.00 0.00 0.00 39 1013.2
20260509051841 66 93 3.0 12.0 0.00 0.00 0.00 38 1012.9
20260509051337 66 103 5.0 7.0 0.00 0.00 0.00 38 1013.4
20260509050838 66 128 4.0 7.0 0.00 0.00 0.00 39 1013.2
20260509050337 66 113 2.0 9.0 0.00 0.00 0.00 38 1013.0
20260509045838 67 109 5.0 9.0 0.00 0.00 0.00 38 1013.3
20260509045731 67 117 5.0 9.0 0.00 0.00 0.00 37 1013.2
20260509044837 67 106 4.0 7.0 0.00 0.00 0.00 37 1013.2
20260509044336 67 97 4.0 5.0 0.00 0.00 0.00 37 1013.3
20260509043836 68 134 2.0 5.0 0.00 0.00 0.00 37 1013.2
20260509043336 67 103 0.0 6.0 0.00 0.00 0.00 37 1013.3
20260509042838 67 106 3.0 6.0 0.00 0.00 0.00 37 1013.3
20260509042729 67 100 2.0 6.0 0.00 0.00 0.00 37 1013.2
20260509041837 68 107 3.0 6.0 0.00 0.00 0.00 37 1013.2
20260509041336 68 109 3.0 7.0 0.00 0.00 0.00 37 1013.2
20260509040836 68 110 4.0 7.0 0.00 0.00 0.00 36 1013.2
20260509040716 68 103 4.0 6.0 0.00 0.00 0.00 36 1013.2
20260509035836 68 107 3.0 5.0 0.00 0.00 0.00 37 1013.2
20260509035337 68 89 1.0 4.0 0.00 0.00 0.00 36 1013.0
20260509034837 69 93 2.0 3.0 0.00 0.00 0.00 36 1013.0
20260509034336 69 107 0.0 7.0 0.00 0.00 0.00 35 1012.9
20260509033836 69 87 2.0 7.0 0.00 0.00 0.00 35 1012.9
20260509033724 70 103 2.0 6.0 0.00 0.00 0.00 35 1012.9
20260509032837 70 97 3.0 6.0 0.00 0.00 0.00 34 1012.9
20260509032336 70 113 2.0 4.0 0.00 0.00 0.00 34 1012.8
20260509031836 70 110 1.0 4.0 0.00 0.00 0.00 34 1012.7
20260509031336 70 96 1.0 4.0 0.00 0.00 0.00 34 1012.6
20260509030836 70 68 0.0 5.0 0.00 0.00 0.00 34 1012.5
20260509030341 70 114 2.0 5.0 0.00 0.00 0.00 34 1012.6
20260509025836 70 103 1.0 3.0 0.00 0.00 0.00 33 1012.5
20260509025336 71 106 0.0 3.0 0.00 0.00 0.00 32 1012.4
20260509024836 71 100 1.0 3.0 0.00 0.00 0.00 32 1012.3
20260509024336 71 51 0.0 3.0 0.00 0.00 0.00 32 1012.4
20260509023837 71 111 0.0 3.0 0.00 0.00 0.00 31 1012.2
20260509023337 72 116 0.0 3.0 0.00 0.00 0.00 31 1012.0
20260509022837 72 97 1.0 3.0 0.00 0.00 0.00 31 1012.0
20260509022335 72 99 1.0 2.0 0.00 0.00 0.00 31 1011.9
20260509021835 72 23 0.0 4.0 0.00 0.00 0.00 31 1012.0
20260509021728 73 69 1.0 4.0 0.00 0.00 0.00 30 1011.8
20260509020836 73 90 0.0 2.0 0.00 0.00 0.00 30 1011.8
20260509020721 74 107 1.0 3.0 0.00 0.00 0.00 30 1011.6
20260509020230 74 21 1.0 3.0 0.00 0.00 0.00 30 1011.8
20260509015340 74 20 0.0 2.0 0.00 0.00 0.00 29 1011.7
20260509014836 74 0 0.0 3.0 0.00 0.00 0.00 29 1011.7
20260509014337 75 44 0.0 6.0 0.00 0.00 0.00 29 1011.7
20260509014220 75 27 2.0 6.0 0.00 0.00 0.00 29 1011.5
20260509013336 75 35 2.0 6.0 0.00 0.00 0.00 29 1011.5
20260509013226 76 31 3.0 11.0 0.00 0.00 0.00 29 1011.5
20260509012338 76 0 3.0 11.0 0.00 0.00 0.00 29 1011.4
20260509011838 76 16 3.0 9.0 0.00 0.00 0.00 28 1011.4
20260509011336 76 23 2.0 6.0 0.00 0.00 0.00 28 1011.4
20260509010836 76 44 2.0 10.0 0.00 0.00 0.00 28 1011.3
20260509010724 76 1 3.0 10.0 0.00 0.00 0.00 28 1011.4
20260509005836 77 41 6.0 10.0 0.00 0.00 0.00 28 1011.3
20260509005338 77 25 2.0 6.0 0.00 0.00 0.00 28 1011.1
20260509004836 77 0 2.0 10.0 0.00 0.00 0.00 27 1011.1
20260509004734 77 21 5.0 10.0 0.00 0.00 0.00 27 1011.0
20260509003839 78 73 4.0 10.0 0.00 0.00 0.00 27 1011.1
20260509003336 78 0 4.0 9.0 0.00 0.00 0.00 27 1011.0
20260509002836 78 0 3.0 11.0 0.00 0.00 0.00 26 1011.0
20260509002336 79 35 5.0 11.0 0.00 0.00 0.00 26 1011.0
20260509001837 79 10 3.0 11.0 0.00 0.00 0.00 25 1011.0
20260509001336 79 8 6.0 13.0 0.00 0.00 0.00 25 1011.0
20260509000835 79 0 6.0 13.0 0.00 0.00 0.00 25 1011.0
20260509000336 79 11 4.0 10.0 0.00 0.00 0.00 26 1010.9
20260509000220 80 62 4.0 10.0 0.00 0.00 0.00 25 1010.9
20260508235337 80 69 4.0 11.0 0.00 0.00 0.00 28 1010.9
20260508234837 80 25 4.0 12.0 0.00 0.00 0.00 25 1010.9
20260508234336 80 333 6.0 15.0 0.00 0.00 0.00 25 1010.8
20260508233836 81 18 4.0 15.0 0.00 0.00 0.00 25 1010.9
20260508233337 82 0 6.0 15.0 0.00 0.00 0.00 24 1010.9
20260508232836 82 350 7.0 16.0 0.00 0.00 0.00 25 1010.8
20260508232337 82 14 6.0 16.0 0.00 0.00 0.00 25 1010.8
20260508231836 81 0 6.0 14.0 0.00 0.00 0.00 25 1010.9
20260508231637 81 13 4.0 14.0 0.00 0.00 0.00 24 1010.8
20260508231505 81 0 7.0 14.0 0.00 0.00 0.00 25 1010.9
20260508230336 82 61 3.0 14.0 0.00 0.00 0.00 25 1010.9
20260508225837 82 17 4.0 13.0 0.00 0.00 0.00 24 1010.8
20260508225337 82 39 3.0 15.0 0.00 0.00 0.00 24 1010.8
20260508224838 83 90 6.0 17.0 0.00 0.00 0.00 24 1010.9
20260508224339 83 37 7.0 17.0 0.00 0.00 0.00 24 1010.8
20260508224226 83 14 4.0 16.0 0.00 0.00 0.00 24 1010.8
20260508223336 83 4 3.0 17.0 0.00 0.00 0.00 25 1010.8
20260508222837 83 30 9.0 17.0 0.00 0.00 0.00 25 1010.8
20260508222337 83 0 6.0 11.0 0.00 0.00 0.00 24 1010.8
20260508221836 83 351 6.0 15.0 0.00 0.00 0.00 24 1010.8
20260508221337 83 30 4.0 17.0 0.00 0.00 0.00 25 1010.7
20260508221118 83 0 11.0 19.0 0.00 0.00 0.00 24 1010.8
20260508221005 83 7 6.0 19.0 0.00 0.00 0.00 24 1010.8
20260508215835 83 16 6.0 16.0 0.00 0.00 0.00 24 1010.8
20260508215720 84 65 6.0 16.0 0.00 0.00 0.00 24 1010.7
20260508215232 84 0 7.0 15.0 0.00 0.00 0.00 25 1010.8
20260508214337 83 340 5.0 13.0 0.00 0.00 0.00 25 1010.8
20260508213838 83 116 6.0 14.0 0.00 0.00 0.00 24 1010.9
20260508213336 83 34 7.0 14.0 0.00 0.00 0.00 23 1011.0
20260508212838 84 32 3.0 14.0 0.00 0.00 0.00 23 1010.9
20260508212336 83 25 4.0 12.0 0.00 0.00 0.00 24 1010.9
20260508211836 84 52 3.0 15.0 0.00 0.00 0.00 23 1010.9
20260508211336 84 25 4.0 15.0 0.00 0.00 0.00 24 1011.0
20260508210836 85 51 5.0 18.0 0.00 0.00 0.00 24 1010.9
20260508210335 85 42 7.0 18.0 0.00 0.00 0.00 24 1010.9
20260508205836 85 0 8.0 19.0 0.00 0.00 0.00 22 1011.0
20260508205337 84 0 10.0 19.0 0.00 0.00 0.00 24 1011.1
20260508204837 84 54 4.0 18.0 0.00 0.00 0.00 23 1011.0
20260508204727 84 18 6.0 15.0 0.00 0.00 0.00 24 1011.1
20260508203837 85 49 6.0 15.0 0.00 0.00 0.00 23 1011.1
20260508203723 84 357 5.0 16.0 0.00 0.00 0.00 22 1011.0
20260508202835 85 331 5.0 17.0 0.00 0.00 0.00 23 1011.1
20260508202336 85 14 8.0 18.0 0.00 0.00 0.00 21 1011.3
20260508202228 84 0 6.0 18.0 0.00 0.00 0.00 22 1011.3
20260508201337 85 320 9.0 17.0 0.00 0.00 0.00 21 1011.3
20260508200835 85 0 7.0 17.0 0.00 0.00 0.00 21 1011.3
20260508200338 85 0 4.0 19.0 0.00 0.00 0.00 21 1011.3
20260508195836 85 18 6.0 21.0 0.00 0.00 0.00 24 1011.3
20260508195336 85 0 10.0 21.0 0.00 0.00 0.00 24 1011.3
20260508195223 85 0 4.0 14.0 0.00 0.00 0.00 24 1011.3
20260508194337 85 32 3.0 17.0 0.00 0.00 0.00 23 1011.3
20260508193836 85 14 7.0 17.0 0.00 0.00 0.00 23 1011.3
20260508193335 85 3 6.0 14.0 0.00 0.00 0.00 24 1011.1
20260508192837 84 41 4.0 16.0 0.00 0.00 0.00 23 1011.1
20260508192336 85 0 4.0 16.0 0.00 0.00 0.00 24 1011.3
20260508191837 85 343 6.0 19.0 0.00 0.00 0.00 25 1011.3
20260508191337 85 354 6.0 19.0 0.00 0.00 0.00 25 1011.3
20260508190835 84 327 3.0 11.0 0.00 0.00 0.00 27 1011.1
20260508190337 84 348 4.0 15.0 0.00 0.00 0.00 30 1011.3
20260508190225 84 336 7.0 15.0 0.00 0.00 0.00 30 1011.3
20260508185337 83 336 4.0 12.0 0.00 0.00 0.00 30 1011.4
20260508185218 83 357 5.0 12.0 0.00 0.00 0.00 28 1011.4
20260508184424 83 324 3.0 12.0 0.00 0.00 0.00 29 1011.5
20260508184002 83 14 6.0 11.0 0.00 0.00 0.00 28 1011.6
20260508182837 83 37 6.0 12.0 0.00 0.00 0.00 29 1011.6
20260508182337 82 52 3.0 12.0 0.00 0.00 0.00 29 1011.6
20260508182122 82 7 6.0 13.0 0.00 0.00 0.00 29 1011.6
20260508182009 82 337 4.0 13.0 0.00 0.00 0.00 28 1011.6
20260508180837 82 348 5.0 10.0 0.00 0.00 0.00 30 1011.6
20260508180337 82 0 4.0 10.0 0.00 0.00 0.00 33 1011.7
20260508175837 81 347 4.0 10.0 0.00 0.00 0.00 30 1011.7
20260508175337 80 312 4.0 9.0 0.00 0.00 0.00 31 1011.8
20260508174835 78 259 3.0 11.0 0.00 0.00 0.00 30 1011.7
20260508174335 80 307 6.0 11.0 0.00 0.00 0.00 31 1011.8
20260508173835 80 302 3.0 12.0 0.00 0.00 0.00 32 1011.8
20260508173336 79 286 6.0 12.0 0.00 0.00 0.00 28 1011.9
20260508172838 80 247 6.0 11.0 0.00 0.00 0.00 31 1011.8
20260508172338 80 340 5.0 11.0 0.00 0.00 0.00 31 1011.8
20260508171836 78 268 1.0 4.0 0.00 0.00 0.00 33 1011.9
20260508171720 78 4 1.0 10.0 0.00 0.00 0.00 30 1011.9
20260508171118 78 261 2.0 7.0 0.00 0.00 0.00 30 1012.0
20260508171003 78 306 4.0 10.0 0.00 0.00 0.00 32 1012.0
20260508165838 79 353 3.0 12.0 0.00 0.00 0.00 32 1012.0
20260508165336 77 10 7.0 12.0 0.00 0.00 0.00 34 1012.2
20260508164835 76 1 3.0 9.0 0.00 0.00 0.00 35 1012.3
20260508164335 76 345 2.0 9.0 0.00 0.00 0.00 34 1012.4
20260508163837 76 337 3.0 9.0 0.00 0.00 0.00 34 1012.4
20260508163335 76 254 2.0 7.0 0.00 0.00 0.00 32 1012.3
20260508162836 76 234 3.0 7.0 0.00 0.00 0.00 38 1012.3
20260508162335 75 188 3.0 7.0 0.00 0.00 0.00 37 1012.4
20260508161837 74 243 2.0 6.0 0.00 0.00 0.00 38 1012.3
20260508161336 75 323 2.0 6.0 0.00 0.00 0.00 38 1012.4
20260508160835 73 274 2.0 9.0 0.00 0.00 0.00 39 1012.4
20260508160336 73 233 2.0 9.0 0.00 0.00 0.00 41 1012.5
20260508155836 74 245 3.0 10.0 0.00 0.00 0.00 40 1012.4
20260508155336 73 272 3.0 11.0 0.00 0.00 0.00 41 1012.4
20260508154836 72 206 4.0 11.0 0.00 0.00 0.00 43 1012.5
20260508154336 71 257 5.0 12.0 0.00 0.00 0.00 44 1012.5
20260508153835 71 265 5.0 12.0 0.00 0.00 0.00 45 1012.6
20260508153334 71 199 4.0 9.0 0.00 0.00 0.00 48 1012.6
20260508152835 71 243 4.0 12.0 0.00 0.00 0.00 49 1012.6
20260508152355 69 207 6.0 11.0 0.00 0.00 0.00 51 1012.8
20260508152344 70 176 4.0 12.0 0.00 0.00 0.00 50 1012.8
20260508151504 69 271 5.0 13.0 0.00 0.00 0.00 54 1012.7
20260508150337 67 255 6.0 12.0 0.00 0.00 0.00 53 1012.8
20260508145835 68 240 6.0 12.0 0.00 0.00 0.00 55 1012.7
20260508145723 67 221 6.0 15.0 0.00 0.00 0.00 56 1012.8
20260508144836 66 238 6.0 15.0 0.00 0.00 0.00 57 1012.9
20260508144335 65 193 6.0 16.0 0.00 0.00 0.00 58 1012.8
20260508143836 65 204 5.0 16.0 0.00 0.00 0.00 60 1012.7
20260508143334 64 247 6.0 12.0 0.00 0.00 0.00 61 1012.8
20260508142834 64 224 6.0 10.0 0.00 0.00 0.00 61 1012.8
20260508142335 62 175 3.0 12.0 0.00 0.00 0.00 63 1012.8
20260508141837 62 223 4.0 12.0 0.00 0.00 0.00 64 1012.9
20260508141338 62 243 6.0 13.0 0.00 0.00 0.00 64 1012.9
20260508140837 62 245 6.0 13.0 0.00 0.00 0.00 64 1012.9
20260508140335 61 230 6.0 12.0 0.00 0.00 0.00 64 1012.7
20260508135836 61 226 5.0 13.0 0.00 0.00 0.00 66 1012.6
20260508135720 60 227 5.0 13.0 0.00 0.00 0.00 67 1012.7
20260508134835 59 206 5.0 14.0 0.00 0.00 0.00 66 1012.8
20260508134335 60 217 6.0 14.0 0.00 0.00 0.00 66 1012.9
20260508133836 59 241 5.0 12.0 0.00 0.00 0.00 67 1013.2
20260508133336 59 223 5.0 10.0 0.00 0.00 0.00 67 1013.3
20260508132836 59 200 5.0 12.0 0.00 0.00 0.00 67 1013.2
20260508132337 59 224 6.0 12.0 0.00 0.00 0.00 66 1012.9
20260508131835 59 217 6.0 12.0 0.00 0.00 0.00 66 1012.8
20260508131516 57 241 5.0 12.0 0.00 0.00 0.00 70 1012.6
20260508131510 58 227 6.0 12.0 0.00 0.00 0.00 69 1012.7
20260508131426 59 195 5.0 12.0 0.00 0.00 0.00 67 1012.6